Regional Weather Roundup
Issued by NWS Bismarck, ND

Home | Current Version | Previous Version | Text Only | Print | Product List | Glossary On
Versions: 1 2 3 4 5 6 7 8 9 10 11 12 13 14 15 16 17 18 19 20 21 22 23 24 25 26 27 28 29 30 31 32 33 34 35 36 37 38 39 40 41 42 43 44 45 46 47 48 49 50
000
ASUS43 KBIS 280202
RWRBIS

NWR BROADCAST TEXT
NATIONAL WEATHER SERVICE BISMARCK ND
900 PM CDT WED JUL 27 2016

NOTE: "FAIR" INDICATES FEW OR NO CLOUDS BELOW 12,000 FEET WITH NO
SIGNIFICANT WEATHER AND/OR OBSTRUCTIONS TO VISIBILITY.


CITY           SKY/WX    TMP DP  RH WIND       PRES   REMARKS
WILLISTON      MOCLDY    68  58  70 E5        30.13S
MINOT          CLOUDY    71  60  68 NE6       30.12S
MINOT AFB      CLOUDY    71  57  61 NE7       30.11S
BISMARCK       MOCLDY    72  60  66 E7        30.11R
DICKINSON      PTCLDY    66  59  78 NE12      30.11R
GARRISON         N/A     69  60  73 E6        30.11F
HETTINGER ARPT CLEAR     71  59  65 NE6       30.13R
JAMESTOWN      CLOUDY    67  60  78 N5        30.10R
CARRINGTON     FAIR      66  59  77 MISG      30.13S
HAZEN          CLOUDY    68  59  73 E5        30.13R
OAKES            N/A    N/A N/A N/A MISG        N/A
STANLEY        CLOUDY    64  64 100 VRB3      30.16S
$$

CITY           SKY/WX    TMP DP  RH WIND       PRES   REMARKS
GRAND FORKS    CLOUDY    71  58  63 N12       30.06R
GRAND FORKS AF CLOUDY    69  58  68 N10       30.08S
DEVILS LAKE    PTCLDY    65  58  78 NE6       30.12S
FARGO          CLOUDY    71  60  68 N14       30.03R
CAVALIER       FAIR      66  57  72 N7        30.11R
GRAFTON        CLOUDY    68  59  73 NW10      30.10S
GWINNER        FAIR      68  57  68 N9        30.07F
LANGDON        FAIR      64  57  77 NE9       30.14S
ROLLA          FAIR      63  55  77 NE5       30.16S
$$

CITY           SKY/WX    TMP DP  RH WIND       PRES   REMARKS
ABERDEEN       CLOUDY    73  61  65 N7        30.06S
MOBRIDGE       CLOUDY    73  60  63 E7        30.07R
BUFFALO          N/A     72  56  57 E12       30.06F
RAPID CITY     CLEAR     72  58  61 E7        30.13R
GLASGOW        LGT RAIN  61  58  90 S13G22    30.12R
SIDNEY         CLOUDY    69  61  75 NE7       30.11F
WOLF POINT     CLOUDY    71  60  68 NE6       30.12S
GLENDIVE       CLOUDY    71  59  65 NE12      30.12R
MILES CITY     LGT RAIN  78  59  51 NE15      30.07R
BAKER          CLEAR     71  60  68 E5        30.13R
$$

CITY           SKY/WX    TMP DP  RH WIND       PRES   REMARKS
BILLINGS       PTCLDY    75  60  59 N7        30.11S
GREAT FALLS    CLEAR     77  51  40 E14       30.13R
$$





USA.gov is the U.S. government's official web portal to all federal, state and local government web resources and services.